Amsterdam, Netherlands

5:58 PM CEST on June 27, 2017 (GMT +0200)
Schiphol

Weather History for EHAM - October, 2012

Change the Weather History Date:

Sunday, October 7, 2012

  Actual Average Record
Temperature  
Mean Temperature 50 °F -  
Max Temperature 59 °F 54 °F 66 °F (2005)
Min Temperature 41 °F 44 °F 41 °F (2002)
Degree Days  
Heating Degree Days 15    
Moisture  
Dew Point 44 °F    
Average Humidity 82    
Maximum Humidity 100    
Minimum Humidity 53    
Precipitation  
Precipitation 0.00 in - - ()
Sea Level Pressure  
Sea Level Pressure 30.11 in    
Wind  
Wind Speed 4 mph ()    
Max Wind Speed 16 mph    
Max Gust Speed -    
Visibility 6.7 miles    
Events Fog    
Averages and records for this station are not official NWS values.
T = Trace of Precipitation, MM = Missing Value Source: Averaged Metar Reports

Daily Weather History Graph

Daily Weather History Graph

Search for Another Location

Airport or City:

Trip Planner

Search our weather history database for the weather conditions in past years. The results will help you decide how hot, cold, wet, or windy it might be!

Date:

Astronomy

Oct. 07, 2012 Rise Set
Actual Time 7:52 AM CEST 7:03 PM CEST
Civil Twilight 7:18 AM CEST 7:37 PM CEST
Nautical Twilight 6:39 AM CEST 8:16 PM CEST
Astronomical Twilight 5:59 AM CEST 8:56 PM CEST
Moon 11:28 PM CEST (10/7) 2:52 PM CEST (10/7)
Length of Visible Light 12h 18m
Length of Day
11h 10m
Waning Gibbous, 58% of the Moon is Illuminated
Oct 7
Waning Gibbous
Oct 8
Last Quarter
Oct 15
New
Oct 22
First Quarter
Oct 29
Full

Hourly Weather History & Observations

Time (CEST) Temp. Windchill Dew Point Humidity Pressure Visibility Wind Dir Wind Speed Gust Speed Precip Events Conditions
12:25 AM 44.6 °F - 42.8 °F 93% 29.98 in 6.2 mi Variable 1.2 mph - N/A   Partly Cloudy
12:55 AM 44.6 °F - 44.6 °F 100% 29.98 in 6.2 mi East 1.2 mph - N/A   Scattered Clouds
1:25 AM 44.6 °F - 42.8 °F 93% 29.98 in 6.2 mi SSW 2.3 mph - N/A   Mostly Cloudy
1:55 AM 44.6 °F - 44.6 °F 100% 29.98 in 6.2 mi South 1.2 mph - N/A   Scattered Clouds
2:00 AM 45 °F - 44 °F 94% 30.00 in 25 mi SSE 2.2 mph - -   Partly Cloudy
2:25 AM 44.6 °F - 44.6 °F 100% 29.98 in 6.2 mi Variable 1.2 mph - N/A   Mostly Cloudy
2:55 AM 44.6 °F - 44.6 °F 100% 29.98 in 6.2 mi Calm Calm - N/A   Scattered Clouds
3:25 AM 46.4 °F - 44.6 °F 93% 29.98 in 6.2 mi Variable 1.2 mph - N/A   Scattered Clouds
3:55 AM 46.4 °F - 44.6 °F 93% 29.98 in 6.2 mi North 1.2 mph - N/A   Scattered Clouds
4:25 AM 44.6 °F - 44.6 °F 100% 29.98 in 6.2 mi Calm Calm - N/A Fog Shallow Fog
4:55 AM 44.6 °F - 42.8 °F 93% 30.01 in 6.2 mi SSW 1.2 mph - N/A Fog Shallow Fog
5:00 AM 44 °F - 43 °F 95% 30.01 in 22 mi SSW 2.2 mph - -  
5:25 AM 41.0 °F - 41.0 °F 100% 30.01 in 6.2 mi WNW 1.2 mph - N/A Fog Shallow Fog
5:55 AM 42.8 °F - 41.0 °F 93% 30.01 in 6.2 mi Calm Calm - N/A   Partly Cloudy
6:25 AM 42.8 °F - 42.8 °F 100% 30.01 in 6.2 mi Variable 2.3 mph - N/A   Mostly Cloudy
6:55 AM 44.6 °F 43.1 °F 44.6 °F 100% 30.04 in 6.2 mi NW 3.5 mph - N/A   Partly Cloudy
7:25 AM 42.8 °F 41.1 °F 41.0 °F 93% 30.04 in 6.2 mi North 3.5 mph - N/A   Partly Cloudy
7:55 AM 42.8 °F - 42.8 °F 100% 30.04 in 6.2 mi North 2.3 mph - N/A   Partly Cloudy
8:00 AM 44 °F - 43 °F 97% 30.06 in 16 mi NW 2.2 mph - -   Partly Cloudy
8:25 AM 42.8 °F - 42.8 °F 100% 30.06 in 6.2 mi NW 2.3 mph - N/A Fog Shallow Fog
8:55 AM 44.6 °F - 44.6 °F 100% 30.06 in 6.2 mi WNW 2.3 mph - N/A   Partly Cloudy
9:25 AM 48.2 °F - 44.6 °F 87% 30.06 in 6.2 mi West 2.3 mph - N/A   Partly Cloudy
9:55 AM 50.0 °F - 44.6 °F 82% 30.09 in 6.2 mi WNW 3.5 mph - N/A   Partly Cloudy
10:25 AM 53.6 °F - 44.6 °F 72% 30.09 in 6.2 mi Variable 2.3 mph - N/A   Partly Cloudy
10:55 AM 55.4 °F - 46.4 °F 72% 30.09 in 6.2 mi WNW 3.5 mph - N/A   Partly Cloudy
11:00 AM 55 °F - 43 °F 55% 30.13 in 19 mi West 4.5 mph - -   Scattered Clouds
11:25 AM 53.6 °F - 44.6 °F 72% 30.12 in 6.2 mi NW 11.5 mph - N/A   Partly Cloudy
11:55 AM 57.2 °F - 44.6 °F 63% 30.12 in 6.2 mi NW 12.7 mph - N/A   Partly Cloudy
12:25 PM 57.2 °F - 42.8 °F 59% 30.12 in 6.2 mi NW 12.7 mph - N/A   Partly Cloudy
12:55 PM 57.2 °F - 44.6 °F 63% 30.15 in 6.2 mi NW 13.8 mph - N/A   Partly Cloudy
1:25 PM 59.0 °F - 44.6 °F 59% 30.15 in 6.2 mi WNW 15.0 mph - N/A   Partly Cloudy
1:55 PM 57.2 °F - 44.6 °F 63% 30.15 in 6.2 mi NW 15.0 mph - N/A   Scattered Clouds
2:00 PM 57 °F - 44 °F 53% 30.17 in 28 mi NW 15.7 mph - -   Partly Cloudy
2:25 PM 57.2 °F - 44.6 °F 63% 30.15 in 6.2 mi NNW 13.8 mph - N/A   Scattered Clouds
2:55 PM 57.2 °F - 44.6 °F 63% 30.15 in 6.2 mi NW 15.0 mph - N/A   Partly Cloudy
3:25 PM 57.2 °F - 42.8 °F 59% 30.18 in 6.2 mi NW 13.8 mph - N/A   Partly Cloudy
3:55 PM 57.2 °F - 42.8 °F 59% 30.18 in 6.2 mi NW 13.8 mph - N/A   Partly Cloudy
4:25 PM 57.2 °F - 44.6 °F 63% 30.18 in 6.2 mi NW 11.5 mph - N/A   Partly Cloudy
4:55 PM 55.4 °F - 44.6 °F 67% 30.18 in 6.2 mi NW 10.4 mph - N/A   Partly Cloudy
5:00 PM 54 °F - 42 °F 55% 30.20 in 25 mi NW 11.2 mph - -   Scattered Clouds
5:25 PM 55.4 °F - 44.6 °F 67% 30.18 in 6.2 mi NW 11.5 mph - N/A   Partly Cloudy
5:55 PM 53.6 °F - 42.8 °F 67% 30.18 in 6.2 mi NW 9.2 mph - N/A   Partly Cloudy
6:25 PM 51.8 °F - 42.8 °F 71% 30.18 in 6.2 mi NW 8.1 mph - N/A   Partly Cloudy
6:55 PM 50.0 °F - 42.8 °F 76% 30.18 in 6.2 mi NW 4.6 mph - N/A   Partly Cloudy
7:25 PM 50.0 °F - 42.8 °F 76% 30.21 in 6.2 mi NW 3.5 mph - N/A   Partly Cloudy
7:55 PM 48.2 °F - 42.8 °F 82% 30.21 in 6.2 mi NNW 3.5 mph - N/A   Partly Cloudy
8:00 PM 49 °F - 43 °F 72% 30.22 in 28 mi NW 2.2 mph - -   Partly Cloudy
8:25 PM 48.2 °F - 42.8 °F 82% 30.21 in 6.2 mi West 1.2 mph - N/A   Partly Cloudy
8:55 PM 46.4 °F - 42.8 °F 87% 30.21 in 6.2 mi West 2.3 mph - N/A   Scattered Clouds
9:25 PM 46.4 °F - 42.8 °F 87% 30.21 in 6.2 mi West 1.2 mph - N/A   Partly Cloudy
9:55 PM 46.4 °F - 42.8 °F 87% 30.21 in 6.2 mi Calm Calm - N/A   Partly Cloudy
10:25 PM 44.6 °F - 42.8 °F 93% 30.21 in 6.2 mi SSE 1.2 mph - N/A   Partly Cloudy
10:55 PM 44.6 °F - 42.8 °F 93% 30.21 in 6.2 mi ESE 1.2 mph - N/A   Partly Cloudy
11:00 PM 44 °F - 43 °F 94% 30.23 in 22 mi SE 2.2 mph - -   Partly Cloudy
11:25 PM 42.8 °F - 42.8 °F 100% 30.21 in 6.2 mi Variable 1.2 mph - N/A   Partly Cloudy
11:55 PM 44.6 °F - 42.8 °F 93% 30.21 in 6.2 mi Variable 1.2 mph - N/A   Partly Cloudy